Showing default

CALSPHERE 4(A), 1520

Orbit data source: Space-Track

CALSPHERE 4(A), 1520 is a payload satellite owned by NRL (US) in LEO that was launched on Fri, 13 Aug 1965 UTC via a THOR ABLESTAR launch vehicle from the Air Force Western Test Range (AFWTR). Payload-class satellites include a variety of spacecraft equipped with specific instruments for various scientific and technological missions. These include communications satellites like Starlink; space stations such as the ISS; scientific satellites like the Hubble; Earth observation satellites from companies like Planet Labs, Umbra, and HawkEye 360; GPS; miniature CubeSats for education and research; and military/defense satellites.

Loading next visibility...
Identifier
1520, 1965-065H
Orbit
LEO
Country
Flag of USUS
Related business
Manufacturer
NRL
Mission
Operational Defense Calibration
Bus & Motor
NRL 14", Unknown motor
Mass
4 kg wet, 4 kg dry
Launch date (UTC)
1965-08-13 (60 years ago)
Launch vehicle
THOR ABLESTAR
Launch site
Air Force Western Test Range (AFWTR)
Object type
Payload
Rocket body
Debris
Shape & HBR
Sphere, 0.2 m
Radar Cross Section
0.126 m², Small (<0.1 m²)

Expand to show TLE details & history
Last TLE update: 1 day ago

TLE from 1 day ago
0 CALSPHERE 4(A)
1 01520U 65065H   25260.08079406  .00000099  00000-0  17069-3 0  9993
2 01520  89.9144 124.9983 0070017 152.9758   1.4273 13.36215598926235
Epoch: 2025-09-17T01:56Z
TLE epoch observation values (Epoch: 2025-09-17T01:56:20.606Z)
Latitude
25.60569°
Longitude
-80.39024°
Altitude
1,074.036 km
Speed
7.343 km/s
True Right ascension
20h 19m 49s
True Declination
25° 28' 39"
Sunlit
Object was in full shadow at epoch
Visualization orbit readout
Latitude
Unknown
Longitude
Unknown
Altitude
Unknown
Speed
Unknown
Apparent Right ascension
Unknown
Apparent Declination
Unknown
Sunlit
N/A
Visualization observer readout
Local Sidereal Time
20:52:45
Azimuth
Unknown
Elevation
Unknown
Doppler factor
Unknown
Orbital elements
Apogee altitude
1,172.983 km
Perigee altitude
1,067.976 km
Semi-major axis
7,498.616 km
Eccentricity
0.007
Inclination
89.9144°
RAAN
124.9983°
Arg. of periapsis
152.9758°
True anomaly
1.44746°
Mean anomaly
1.4273°
Eccentric anomaly
1.43736°
Mean motion
3.3425 °/min
Orbital period
107.7 mins
BSTAR
0.00017069
Loading maneuver chart data...
Computing Atmospheric mass density...
Loading historical data...
Loading historical data...
Loading historical data...
Loading historical data...
Loading historical data...
Loading historical data...
Loading historical data...

Documentation

Showing up to 5 results
|